GSAT0212 (GALILEO 16)

Last updated on Fri Sep 04 2026 00:02:48 GMT+0000 (Coordinated Universal Time)

1 41860U 16069B 26242.09542702 .00000031 00000+0 00000+0 0 9998 2 41860 55.5420 99.0345 0004028 35.0488 325.0845 1.70473894 60910
UTC large
Height (km)
Speed (km/s)
/
Latitude / Longitude
Inclination (degrees)
Orbital Period (minutes)
Azimuth
Elevation
Range (km)
Doppler Factor

Next 0 passes for location: London (51.5072 / 0.1276)

No passes found over London.
GSAT0212 (GALILEO 16)